This demonstration page uses our WeatherBlox Daily Observations layout. Learn more.

Left ArrowRight Arrow

Hourly Observations for September 3, 2021

Temp ( °F °C ) Dew Point ( °F °C ) Humidity (%) Winds ( mph kmh ) Pressure ( in mb ) Visibility ( mi km ) Precip ( " mm )
12:15 am 00:15 Mostly Cloudy with Mist and Fog 65 18.4 64 18 98 98 N N/A 29.87 1012 1 1 N/A
12:35 am 00:35 Mostly Cloudy with Fog 65 18.3 64 18 98 98 N N/A 29.87 1012 1 1 N/A
12:55 am 00:55 Cloudy with Fog 64 18 64 17.5 97 97 N N/A 29.87 1012 1 1 N/A
1:15 am 01:15 Cloudy with Fog 64 17.7 63 17.3 98 98 N N/A 29.88 1012 1 1 N/A
1:35 am 01:35 Cloudy with Mist and Fog 64 17.5 63 17.1 98 98 NW 3 6 29.88 1012 1 1 N/A
1:55 am 01:55 Partly Cloudy 64 17.5 63 17.2 98 98 N 3 6 29.89 1012 10 16 N/A
2:15 am 02:15 Clear 64 17.8 64 17.5 98 98 NNW 7 11 29.88 1012 10 16 N/A
2:35 am 02:35 Clear 64 17.7 63 17.4 98 98 NNE 3 6 29.89 1012 10 16 N/A
2:55 am 02:55 Clear 64 17.5 63 17.2 98 98 N N/A 29.89 1012 7 11 N/A
3:15 am 03:15 Clear 64 17.5 63 17.2 98 98 N 3 6 29.90 1012 7 11 N/A
3:35 am 03:35 Clear 64 17.5 63 17 97 97 N 6 9 29.90 1012 10 16 N/A
3:55 am 03:55 Clear 63 17.3 63 17 98 98 N 3 6 29.91 1013 10 16 N/A
4:15 am 04:15 Clear 63 17 62 16.5 97 97 N N/A 29.92 1013 10 16 N/A
4:35 am 04:35 Clear 63 17 62 16.5 97 97 NNW 3 6 29.93 1014 10 16 N/A
4:55 am 04:55 Clear 62 16.7 61 16.2 97 97 N 3 6 29.93 1014 10 16 N/A
5:15 am 05:15 Clear 61 16.1 60 15.6 97 97 NNE 6 9 29.94 1014 10 16 N/A
5:35 am 05:35 Partly Cloudy 62 16.4 61 16 98 98 N 5 7 29.94 1014 10 16 N/A
5:55 am 05:55 Cloudy 63 17.1 62 16.6 97 97 N 7 11 29.94 1014 10 16 N/A
6:15 am 06:15 Cloudy 63 17.1 62 16.6 97 97 N 10 17 29.94 1014 10 16 N/A
6:35 am 06:35 Cloudy 64 17.5 62 16.8 96 96 N 9 15 29.95 1014 10 16 N/A
6:55 am 06:55 Cloudy 64 17.5 62 16.8 96 96 N 9 15 29.95 1014 10 16 N/A
7:15 am 07:15 Cloudy 64 17.6 62 16.6 94 94 N 12 19 29.96 1014 10 16 N/A
7:35 am 07:35 Cloudy 64 17.7 62 16.5 93 93 N 8 13 29.96 1014 10 16 N/A
7:55 am 07:55 Cloudy 64 17.8 62 16.8 94 94 N 5 7 29.98 1015 10 16 N/A
8:15 am 08:15 Cloudy 64 18 62 16.8 93 93 N 7 11 29.97 1015 10 16 N/A
8:35 am 08:35 Cloudy 65 18.2 62 16.6 90 90 N 9 15 29.97 1015 10 16 N/A
8:55 am 08:55 Cloudy 65 18.5 63 17 91 91 N 9 15 29.97 1015 10 16 N/A
9:15 am 09:15 Cloudy 66 18.7 62 16.5 87 87 N 13 20 29.97 1015 10 16 0.01 0.25
9:35 am 09:35 Cloudy 66 18.8 62 16.5 87 87 N 16 26 29.97 1015 10 16 0.01 0.25
9:55 am 09:55 Cloudy 66 19.1 62 16.4 84 84 N 14 22 29.97 1015 10 16 0.01 0.25
10:15 am 10:15 Cloudy 67 19.7 62 16.4 81 81 N 17 28 29.97 1015 10 16 N/A
10:35 am 10:35 Partly Cloudy 69 20.3 62 16.5 79 79 NNW 15 24 29.96 1015 10 16 N/A
10:55 am 10:55 Partly Cloudy 68 20.1 61 16.3 79 79 N 12 19 29.97 1015 10 16 N/A
11:15 am 11:15 Partly Cloudy 69 20.4 62 16.6 79 79 N 12 19 29.97 1015 10 16 N/A
11:35 am 11:35 Sunny 70 20.9 62 16.9 78 78 N 9 15 29.96 1015 10 16 N/A
11:55 am 11:55 Sunny 71 21.5 63 17.1 76 76 NNE 10 17 29.95 1014 10 16 N/A
12:15 pm 12:15 Sunny 72 22 64 17.5 76 76 N 10 17 29.95 1014 10 16 N/A
12:35 pm 12:35 Sunny 72 22.1 63 17.3 74 74 N 13 20 29.94 1014 10 16 N/A
12:55 pm 12:55 Partly Cloudy 73 22.6 63 17.3 72 72 NNW 7 11 29.95 1014 10 16 N/A
1:15 pm 13:15 Partly Cloudy 74 23.1 64 17.7 72 72 N 7 11 29.93 1014 10 16 N/A
1:35 pm 13:35 Sunny 74 23.3 64 17.8 71 71 N 5 7 29.93 1014 10 16 N/A
1:55 pm 13:55 Sunny 74 23.3 64 17.8 71 71 N 7 11 29.92 1013 10 16 N/A
2:15 pm 14:15 Sunny 74 23.6 64 17.9 70 70 NE 5 7 29.91 1013 10 16 N/A
2:35 pm 14:35 Partly Cloudy 76 24.2 65 18.1 69 69 NE 7 11 29.90 1013 10 16 N/A
2:55 pm 14:55 Partly Cloudy 76 24.3 64 17.8 67 67 ENE 6 9 29.90 1013 10 16 N/A
3:15 pm 15:15 Partly Cloudy 76 24.5 64 17.8 66 66 NE 6 9 29.90 1013 10 16 N/A
3:35 pm 15:35 Partly Cloudy 77 24.9 64 17.6 64 64 N 5 7 29.89 1012 10 16 N/A
3:55 pm 15:55 Partly Cloudy 77 24.9 64 17.7 64 64 N 8 13 29.89 1012 10 16 N/A
4:15 pm 16:15 Partly Cloudy 76 24.6 65 18.2 68 68 NNE 6 9 29.88 1012 10 16 N/A
4:35 pm 16:35 Partly Cloudy 77 24.8 64 17.8 65 65 NE 8 13 29.87 1011 10 16 N/A
4:55 pm 16:55 Mostly Cloudy 76 24.6 64 18 67 67 ENE 7 11 29.87 1012 10 16 N/A
5:15 pm 17:15 Mostly Cloudy 75 23.9 65 18.6 72 72 N 6 9 29.87 1011 10 16 N/A
5:35 pm 17:35 Mostly Cloudy 75 23.8 65 18.1 71 71 NNE 6 9 29.88 1012 10 16 N/A
5:55 pm 17:55 Partly Cloudy 75 24 65 18.3 71 71 N 5 7 29.87 1012 10 16 N/A
6:15 pm 18:15 Partly Cloudy 74 23.1 64 17.9 73 73 NNE 7 11 29.88 1012 10 16 N/A
6:35 pm 18:35 Partly Cloudy 74 23.4 64 18 72 72 NNE 7 11 29.88 1012 10 16 N/A
6:55 pm 18:55 Sunny 73 23 64 17.7 72 72 NE 7 11 29.88 1012 10 16 N/A
7:15 pm 19:15 Sunny 72 22.1 65 18.3 79 79 ENE 3 6 29.90 1013 10 16 N/A
7:35 pm 19:35 Sunny 71 21.5 65 18.6 84 84 ENE 3 6 29.91 1013 10 16 N/A
7:55 pm 19:55 Sunny 70 20.9 66 18.8 88 88 NE 3 6 29.93 1014 10 16 N/A
8:15 pm 20:15 Clear 69 20.5 66 18.7 89 89 NE 6 9 29.92 1013 10 16 N/A
8:35 pm 20:35 Clear 69 20.5 65 18.1 86 86 ENE 6 9 29.93 1014 10 16 N/A
8:55 pm 20:55 Clear 67 19.5 64 18 91 91 ENE 5 7 29.93 1014 10 16 N/A
9:15 pm 21:15 Clear 68 19.9 64 18 89 89 ENE 6 9 29.94 1014 10 16 N/A
9:35 pm 21:35 Clear 67 19.2 64 17.5 90 90 NE 5 7 29.94 1014 10 16 N/A
9:55 pm 21:55 Clear 66 18.7 64 17.5 93 93 NE 6 9 29.95 1014 10 16 N/A
10:15 pm 22:15 Partly Cloudy 66 19.1 64 17.6 91 91 N N/A 29.96 1015 10 16 N/A
10:35 pm 22:35 Mostly Cloudy 66 19.1 64 17.6 91 91 N N/A 29.96 1015 10 16 N/A
10:55 pm 22:55 Partly Cloudy 66 18.8 64 17.5 92 92 NE 3 6 29.95 1014 10 16 N/A
11:15 pm 23:15 Clear 65 18.5 64 17.5 94 94 NNE 7 11 29.95 1014 10 16 N/A
11:35 pm 23:35 Partly Cloudy 65 18.5 64 17.5 94 94 N 5 7 29.94 1014 10 16 N/A
11:55 pm 23:55 Mostly Cloudy 66 18.8 64 17.5 92 92 NNE 6 9 29.95 1014 10 16 N/A

Powered by AerisWeather